Location: Lake Almanor
(40.2485°N, 121.1442°W)
Time: 23:05:47
(UTC-08:00)

STARLINK-1082 - Pass Details

Date: 31 January 2020
Orbit: 348 x 351 km, 53.0° (Epoch: 22 February)

Event Time Altitude Azimuth Distance (km) Brightness Sun altitude
Rises 18:10:10 0° 315° (NW) 2,175 7.1 -9.6°
Reaches altitude 10° 18:12:17 10° 325° (NW) 1,328 5.9 -10.0°
Maximum altitude 18:15:03 34° 33° (NNE) 604 3.5 -10.5°
Enters shadow 18:16:52 17° 92° (E) 986 4.3 -10.8°
